When you browse on this site, cookies collect data to enhance your experience and personalize the content and advertising you see.
Visit our Privacy Policy to learn more. By continuing to use the site, you agree to this use of cookies and data.
  • In Österreich
  • Länderverzeichnis
  • Für 7 Tage
  • Wassertemperatur
  • Wetterkarte
  • News
  • Widgets
  • user-avatar
    Anmelden

    Stündliche Wetter Kabimas

    Heute, 28 Januar, Dienstag

    Zeit Temperatur Niederschläge Wind Luftdruck Luftfeuchtigkeit
    00:00 +27°C° 0 mm 4 m/S 760 mmHg 79%
    01:00 +27°C° 0 mm 4 m/S 759 mmHg 79%
    02:00 +26°C° 0 mm 4 m/S 759 mmHg 82%
    03:00 +26°C° 0 mm 4 m/S 759 mmHg 84%
    04:00 +26°C° 0 mm 4 m/S 759 mmHg 87%
    05:00 +26°C° 0.4 mm 4 m/S 759 mmHg 86%
    06:00 +26°C° 0.4 mm 4 m/S 759 mmHg 84%
    07:00 +27°C° 0.4 mm 4 m/S 760 mmHg 83%
    08:00 +29°C° 0.9 mm 3 m/S 760 mmHg 72%
    09:00 +33°C° 0.9 mm 3 m/S 760 mmHg 62%
    10:00 +35°C° 0.9 mm 2 m/S 760 mmHg 51%
    11:00 +35°C° 0.4 mm 3 m/S 759 mmHg 50%
    12:00 +35°C° 0.4 mm 4 m/S 759 mmHg 50%
    13:00 +35°C° 0.4 mm 4 m/S 758 mmHg 49%
    14:00 +35°C° 0.1 mm 4 m/S 757 mmHg 49%
    15:00 +35°C° 0.1 mm 4 m/S 757 mmHg 49%
    16:00 +35°C° 0.1 mm 4 m/S 756 mmHg 49%
    17:00 +34°C° 0 mm 5 m/S 757 mmHg 54%
    18:00 +32°C° 0 mm 5 m/S 757 mmHg 60%
    19:00 +29°C° 0 mm 5 m/S 758 mmHg 66%
    20:00 +29°C° 0 mm 5 m/S 758 mmHg 67%
    21:00 +28°C° 0 mm 4 m/S 759 mmHg 69%
    22:00 +28°C° 0 mm 4 m/S 759 mmHg 71%
    23:00 +27°C° 0 mm 4 m/S 759 mmHg 74%

    Morgen, 29 Januar, Mittwoch

    Zeit Temperatur Niederschläge Wind Luftdruck Luftfeuchtigkeit
    00:00 +27°C° 0 mm 4 m/S 758 mmHg 77%
    01:00 +26°C° 0 mm 4 m/S 758 mmHg 80%
    02:00 +26°C° 0 mm 4 m/S 758 mmHg 83%
    03:00 +26°C° 0 mm 4 m/S 758 mmHg 86%
    04:00 +26°C° 0 mm 4 m/S 758 mmHg 88%
    05:00 +26°C° 0.1 mm 4 m/S 758 mmHg 86%
    06:00 +27°C° 0.1 mm 4 m/S 759 mmHg 83%
    07:00 +27°C° 0.1 mm 4 m/S 759 mmHg 81%
    08:00 +30°C° 0 mm 3 m/S 760 mmHg 70%
    09:00 +33°C° 0 mm 3 m/S 760 mmHg 59%
    10:00 +36°C° 0 mm 2 m/S 760 mmHg 49%
    11:00 +36°C° 0.2 mm 2 m/S 759 mmHg 49%
    12:00 +36°C° 0.2 mm 2 m/S 759 mmHg 49%
    13:00 +36°C° 0.2 mm 2 m/S 758 mmHg 49%
    14:00 +35°C° 0 mm 3 m/S 757 mmHg 50%
    15:00 +34°C° 0 mm 4 m/S 757 mmHg 50%
    16:00 +34°C° 0 mm 5 m/S 756 mmHg 51%
    17:00 +33°C° 0 mm 5 m/S 757 mmHg 55%
    18:00 +32°C° 0 mm 5 m/S 758 mmHg 59%
    19:00 +30°C° 0 mm 6 m/S 758 mmHg 63%
    20:00 +29°C° 0 mm 6 m/S 758 mmHg 66%
    21:00 +28°C° 0 mm 6 m/S 759 mmHg 68%
    22:00 +28°C° 0 mm 6 m/S 759 mmHg 71%
    23:00 +27°C° 0 mm 5 m/S 759 mmHg 73%

    übermorgen, 30 Januar, Donnerstag

    Zeit Temperatur Niederschläge Wind Luftdruck Luftfeuchtigkeit
    00:00 +27°C° 0 mm 4 m/S 759 mmHg 76%
    01:00 +27°C° 0 mm 4 m/S 758 mmHg 78%
    02:00 +26°C° 0 mm 3 m/S 758 mmHg 79%
    03:00 +26°C° 0 mm 3 m/S 758 mmHg 79%
    04:00 +26°C° 0 mm 2 m/S 758 mmHg 80%
    05:00 +26°C° 0 mm 2 m/S 758 mmHg 78%
    06:00 +26°C° 0 mm 2 m/S 759 mmHg 77%
    07:00 +27°C° 0 mm 2 m/S 760 mmHg 75%
    08:00 +29°C° 0 mm 1 m/S 760 mmHg 66%
    09:00 +32°C° 0 mm 1 m/S 760 mmHg 56%
    10:00 +35°C° 0 mm 1 m/S 760 mmHg 47%
    11:00 +35°C° 0 mm 1 m/S 759 mmHg 44%
    12:00 +37°C° 0 mm 2 m/S 758 mmHg 41%
    13:00 +38°C° 0 mm 2 m/S 758 mmHg 38%
    14:00 +37°C° 0 mm 2 m/S 757 mmHg 41%
    15:00 +36°C° 0 mm 3 m/S 756 mmHg 44%
    16:00 +35°C° 0 mm 3 m/S 756 mmHg 47%
    17:00 +33°C° 0 mm 4 m/S 756 mmHg 53%
    18:00 +32°C° 0 mm 5 m/S 757 mmHg 58%
    19:00 +30°C° 0 mm 6 m/S 757 mmHg 64%
    20:00 +29°C° 0 mm 6 m/S 758 mmHg 68%
    21:00 +28°C° 0 mm 6 m/S 758 mmHg 73%
    22:00 +28°C° 0 mm 6 m/S 759 mmHg 77%
    23:00 +27°C° 0 mm 6 m/S 759 mmHg 78%

    31 Januar, Freitag

    Zeit Temperatur Niederschläge Wind Luftdruck Luftfeuchtigkeit
    00:00 +27°C° 0 mm 5 m/S 758 mmHg 78%
    01:00 +27°C° 0 mm 4 m/S 758 mmHg 79%
    02:00 +26°C° 0 mm 4 m/S 758 mmHg 79%
    03:00 +26°C° 0 mm 4 m/S 758 mmHg 80%
    04:00 +26°C° 0 mm 3 m/S 758 mmHg 80%
    05:00 +26°C° 0 mm 3 m/S 758 mmHg 78%
    06:00 +27°C° 0 mm 2 m/S 759 mmHg 76%
    07:00 +27°C° 0 mm 2 m/S 759 mmHg 74%
    08:00 +30°C° 0 mm 2 m/S 759 mmHg 65%
    09:00 +32°C° 0 mm 1 m/S 760 mmHg 55%
    10:00 +35°C° 0 mm 1 m/S 760 mmHg 45%
    11:00 +35°C° 0 mm 1 m/S 759 mmHg 45%
    12:00 +37°C° 0 mm 2 m/S 758 mmHg 45%
    13:00 +37°C° 0 mm 2 m/S 758 mmHg 45%
    14:00 +36°C° 0 mm 3 m/S 757 mmHg 47%
    15:00 +36°C° 0 mm 3 m/S 757 mmHg 49%
    16:00 +35°C° 0 mm 4 m/S 756 mmHg 51%
    17:00 +34°C° 0 mm 4 m/S 757 mmHg 55%
    18:00 +33°C° 0 mm 5 m/S 757 mmHg 59%
    19:00 +32°C° 0 mm 6 m/S 758 mmHg 63%
    20:00 +30°C° 0 mm 5 m/S 758 mmHg 65%
    21:00 +30°C° 0 mm 4 m/S 759 mmHg 66%
    22:00 +30°C° 0 mm 3 m/S 759 mmHg 67%
    23:00 +29°C° 0 mm 3 m/S 759 mmHg 69%

    1 Februar, Samstag

    Zeit Temperatur Niederschläge Wind Luftdruck Luftfeuchtigkeit
    00:00 +28°C° 0 mm 3 m/S 758 mmHg 71%
    01:00 +28°C° 0 mm 3 m/S 758 mmHg 73%
    02:00 +27°C° 0.1 mm 2 m/S 758 mmHg 73%
    03:00 +27°C° 0.1 mm 2 m/S 758 mmHg 73%
    04:00 +27°C° 0.1 mm 2 m/S 758 mmHg 73%
    05:00 +27°C° 0 mm 2 m/S 758 mmHg 72%
    06:00 +27°C° 0 mm 3 m/S 759 mmHg 71%
    07:00 +28°C° 0 mm 3 m/S 759 mmHg 70%
    08:00 +30°C° 0 mm 2 m/S 759 mmHg 61%
    09:00 +33°C° 0 mm 1 m/S 760 mmHg 53%
    10:00 +36°C° 0 mm 1 m/S 760 mmHg 44%
    11:00 +36°C° 0 mm 1 m/S 759 mmHg 45%
    12:00 +37°C° 0 mm 2 m/S 758 mmHg 45%
    13:00 +37°C° 0 mm 2 m/S 758 mmHg 45%
    14:00 +36°C° 0 mm 3 m/S 757 mmHg 46%
    15:00 +36°C° 0 mm 3 m/S 757 mmHg 47%
    16:00 +36°C° 0 mm 4 m/S 756 mmHg 48%
    17:00 +34°C° 0 mm 4 m/S 756 mmHg 51%
    18:00 +33°C° 0 mm 5 m/S 757 mmHg 54%
    19:00 +30°C° 0 mm 5 m/S 757 mmHg 57%
    20:00 +30°C° 0 mm 5 m/S 758 mmHg 59%
    21:00 +30°C° 0 mm 4 m/S 758 mmHg 61%
    22:00 +29°C° 0 mm 4 m/S 759 mmHg 62%
    23:00 +29°C° 0 mm 4 m/S 759 mmHg 64%

    2 Februar, Sonntag

    Zeit Temperatur Niederschläge Wind Luftdruck Luftfeuchtigkeit
    00:00 +28°C° 0 mm 4 m/S 758 mmHg 65%
    01:00 +27°C° 0 mm 4 m/S 758 mmHg 67%
    02:00 +27°C° 0 mm 4 m/S 758 mmHg 68%
    03:00 +26°C° 0 mm 4 m/S 758 mmHg 70%
    04:00 +26°C° 0 mm 4 m/S 758 mmHg 71%
    05:00 +26°C° 0 mm 4 m/S 758 mmHg 70%
    06:00 +27°C° 0 mm 3 m/S 759 mmHg 70%
    07:00 +27°C° 0 mm 3 m/S 759 mmHg 69%
    08:00 +30°C° 0 mm 3 m/S 759 mmHg 61%
    09:00 +34°C° 0 mm 2 m/S 760 mmHg 52%
    10:00 +35°C° 0 mm 1 m/S 760 mmHg 44%
    11:00 +36°C° 0 mm 2 m/S 759 mmHg 44%
    12:00 +36°C° 0 mm 2 m/S 758 mmHg 45%
    13:00 +36°C° 0 mm 3 m/S 758 mmHg 45%
    14:00 +36°C° 0 mm 3 m/S 757 mmHg 46%
    15:00 +36°C° 0 mm 3 m/S 757 mmHg 47%
    16:00 +35°C° 0 mm 4 m/S 756 mmHg 48%
    17:00 +34°C° 0 mm 5 m/S 756 mmHg 52%
    18:00 +32°C° 0 mm 6 m/S 757 mmHg 56%
    19:00 +30°C° 0 mm 6 m/S 757 mmHg 60%
    20:00 +29°C° 0 mm 6 m/S 758 mmHg 63%
    21:00 +28°C° 0 mm 5 m/S 758 mmHg 66%
    22:00 +28°C° 0 mm 4 m/S 759 mmHg 69%
    23:00 +27°C° 0 mm 3 m/S 759 mmHg 71%
    Mehr zeigen